Regional Weather Roundup
Issued by NWS

Home | Current Version | Previous Version | Graphics & Text | Print | Product List | Glossary Off
Versions: 1 2 3 4 5 6 7 8 9 10 11 12 13 14 15 16 17 18 19 20 21 22 23 24 25 26 27 28 29 30 31 32 33 34 35 36 37 38 39 40 41 42 43 44 45 46 47 48 49 50

000
ASUS43 KTOP 251959
RWRKS

WEATHER ROUNDUP FOR KANSAS
NATIONAL WEATHER SERVICE GOODLAND KS
200 PM CST SUN FEB 25 2018

NOTE:  "FAIR" INDICATES FEW OR NO CLOUDS BELOW 12,000 FEET WITH NO
SIGNIFICANT WEATHER AND/OR OBSTRUCTIONS TO VISIBILITY.

KSZ001>006-013>018-027>032-041>047-252100-
NORTHWEST KANSAS

CITY           SKY/WX    TMP DP  RH WIND       PRES   REMARKS
GOODLAND       SUNNY     45   7  21 NW16G22   29.93F
HAYS           SUNNY     49   8  19 VRB6      30.00F
HILL CITY      SUNNY     50   8  18 SW13G26   29.98F
RUSSELL        MOSUNNY   50   9  19 CALM      29.99F
$$

KSZ061>065-074>080-084>089-252100-
SOUTHWEST KANSAS

CITY           SKY/WX    TMP DP  RH WIND       PRES   REMARKS
DODGE CITY     MOSUNNY   49  14  24 N10       29.97F
GARDEN CITY    SUNNY     45   7  21 N9        29.98F
GREAT BEND     MOSUNNY   49  21  33 S6        30.00F
LIBERAL        SUNNY     49  13  23 N15       29.98F
$$

KSZ066>073-081>083-090>101-252100-
SOUTHEAST KANSAS

CITY           SKY/WX    TMP DP  RH WIND       PRES   REMARKS
CHANUTE        SUNNY     50  30  46 S6        30.06F
COFFEYVILLE    SUNNY     53  35  50 CALM      30.05F
HUTCHINSON     PTSUNNY   49  28  44 S9        30.00F
MEDICINE LODGE   N/A     50  32  50 SW8       29.96F
NEWTON         SUNNY     49  26  41 S8        30.01F
PARSONS        SUNNY     52  29  41 VRB6      30.06F
WICHITA INTL   MOSUNNY   50  31  48 S9        30.00F
WICHITA JABRA  MOSUNNY   52  29  41 SE9       30.00F
WICHITA MCCONL PTSUNNY   51  28  41 S12G17    30.00F
WINFIELD       MOSUNNY   53  31  42 S12G21    30.02F
$$

KSZ007>012-019>026-033>040-048>060-102>105-252100-
NORTHEAST KANSAS

CITY           SKY/WX    TMP DP  RH WIND       PRES   REMARKS
CONCORDIA      MOSUNNY   48  16  27 SW10      30.01F
EMPORIA        CLOUDY    50  23  34 S9        30.02F
LAWRENCE       PTSUNNY   49  20  31 SW9       30.05F
MANHATTAN      SUNNY     52  19  27 SW9       30.02F
OLATHE IND     CLOUDY    47  23  38 SW12      30.07S
OLATHE EXE     CLOUDY    47  20  34 SW9       30.06S
SALINA         CLOUDY    47  23  38 SW5       30.03S
TOPEKA BILLARD SUNNY     52  17  25 S12       30.03F
TOPEKA FORBES  CLOUDY    50  21  32 S9        30.03F
$$



USA.gov is the U.S. government's official web portal to all federal, state and local government web resources and services.